OBJECT AY, 67294

Orbit data source: Space-Track

You're viewing an Uncataloged Satellite

Recently launched and/or uncataloged satellites may have evolving metadata. Metadata may include but not limited to: Owner, Maufacturer, Bus, Motor, and Mission.

OBJECT AY, 67294 is a satellite in SSO that was launched on Sun, 28 Dec 2025 UTC via a SOYUZ-2-1B launch vehicle from the Vostochny Cosmodrome (VOSTO). Unknown objects in Earth's orbit typically refer to objects detected orbiting the Earth but have not yet been identified or cataloged. These objects could be anything from previously untracked satellites, spent rocket stages, debris from satellite collisions, or even natural meteoroids temporarily captured by Earth's gravity.

Loading next visibility...
Identifier
67294, 2025-313AY
Orbit
SSO
Country
Flag of TBDTBD
Related business
Manufacturer
Sputniks
Mission
Operational Amateur Science
Bus & Motor
CUBESAT 3U, Unknown motor
Mass
3 kg wet, 3 kg dry
Launch date (UTC)
2025-12-28 (6 months ago)
Launch vehicle
SOYUZ-2-1B
Launch site
Vostochny Cosmodrome (VOSTO)
Object type
Unknown
Shape & HBR
Box, 0.1 m
Radar Cross Section
0.055 m², Medium (>0.1 m² and < 1m²)

Expand to show TLE details & history
Last TLE update: 16 hours ago

TLE from 16 hours ago
0 OBJECT AY
1 67294U 25313AY  26171.16279960  .00008141  00000-0  32789-3 0  9995
2 67294  97.3936 246.2137 0008155 354.9462   5.1693 15.25087891 26439
Epoch: 2026-06-20T03:54Z
TLE epoch observation values (Epoch: 2026-06-20T03:54:25.885Z)
Latitude
0.00006°
Longitude
-80.77554°
Altitude
488.039 km
Speed
7.624 km/s
True Right ascension
16h 24m 51s
True Declination
0° 00' 00"
Sunlit
Object was in full shadow at epoch
Visualization orbit readout
Latitude
Unknown
Longitude
Unknown
Altitude
Unknown
Speed
Unknown
Apparent Right ascension
Unknown
Apparent Declination
Unknown
Sunlit
N/A
Visualization observer readout
Local Sidereal Time
07:12:43
Azimuth
Unknown
Elevation
Unknown
Doppler factor
Unknown
Orbital elements
Apogee altitude
493.079 km
Perigee altitude
481.881 km
Semi-major axis
6,865.617 km
Eccentricity
0.00082
Inclination
97.3936°
RAAN
246.2137°
Arg. of periapsis
354.9462°
True anomaly
5.17773°
Mean anomaly
5.1693°
Eccentric anomaly
5.17351°
Mean motion
3.81526 °/min
Orbital period
94.36 mins
BSTAR
0.00032789
Loading maneuver chart data...
Computing Atmospheric mass density...
Loading historical data...
Loading historical data...
Loading historical data...
Loading historical data...
Loading historical data...
Loading historical data...
Loading historical data...

Documentation

Showing up to 5 results
|